AXB123 VOBL-VOMM

Flight info

Callsign AXB123
Flight time 0h 35m
Altitude 17000
Route TULNA7B TULNA DCT BUTLA DCT MMV DCT
Aircraft B738/M-SDE2E3FGHIRWXY/LB1

Departure

Time 2026-04-26 07:33
Airport Kempegowda International Airport Bengaluru (VOBL)

Arrival

Time 2026-04-26 08:08
Airport Chennai International Airport (VOMM)
Time Latitude Longitude Altitude Speed Heading
2026-04-26 06:18 13.19942 77.72011 3002 ft 0 kts 270°
2026-04-26 06:52 13.19866 77.72008 3002 ft 0 kts 261°
2026-04-26 07:18 13.19867 77.72014 3001 ft 2 kts 261°
2026-04-26 07:19 13.19868 77.72024 3001 ft 2 kts 260°
2026-04-26 07:19 13.19871 77.72039 3000 ft 2 kts 261°
2026-04-26 07:19 13.19874 77.72060 3000 ft 2 kts 263°
2026-04-26 07:19 13.19873 77.72075 3000 ft 2 kts 288°
2026-04-26 07:20 13.19869 77.72084 3001 ft 2 kts 300°
2026-04-26 07:20 13.19856 77.72100 3001 ft 2 kts 326°
2026-04-26 07:20 13.19847 77.72105 3002 ft 2 kts 339°
2026-04-26 07:20 13.19833 77.72109 3002 ft 1 kts 357°
2026-04-26 07:21 13.19825 77.72109 3002 ft 0 kts
2026-04-26 07:23 13.19833 77.72109 3002 ft 4 kts
2026-04-26 07:23 13.19878 77.72109 3002 ft 14 kts
2026-04-26 07:23 13.19982 77.72109 3002 ft 14 kts
2026-04-26 07:24 13.20126 77.72111 3002 ft 17 kts
2026-04-26 07:24 13.20218 77.72111 3002 ft 20 kts
2026-04-26 07:24 13.20360 77.72113 3002 ft 17 kts
2026-04-26 07:24 13.20468 77.72114 3002 ft 9 kts 360°
2026-04-26 07:25 13.20513 77.72059 3002 ft 8 kts 268°
2026-04-26 07:25 13.20512 77.71975 3002 ft 16 kts 270°
2026-04-26 07:25 13.20514 77.71835 3002 ft 19 kts 270°
2026-04-26 07:25 13.20514 77.71695 3002 ft 19 kts 271°
2026-04-26 07:26 13.20516 77.71561 3002 ft 18 kts 270°
2026-04-26 07:26 13.20515 77.71473 3002 ft 18 kts 270°
2026-04-26 07:26 13.20516 77.71343 3002 ft 17 kts 270°
2026-04-26 07:26 13.20519 77.71216 3002 ft 17 kts 272°
2026-04-26 07:27 13.20523 77.71091 3002 ft 17 kts 271°
2026-04-26 07:27 13.20521 77.70932 3002 ft 16 kts 269°
2026-04-26 07:27 13.20520 77.70853 3002 ft 16 kts 269°
2026-04-26 07:27 13.20524 77.70700 3002 ft 15 kts 271°
2026-04-26 07:28 13.20526 77.70583 3002 ft 16 kts 270°
2026-04-26 07:28 13.20526 77.70468 3002 ft 16 kts 270°
2026-04-26 07:28 13.20526 77.70354 3002 ft 15 kts 271°
2026-04-26 07:28 13.20528 77.70207 3002 ft 27 kts 270°
2026-04-26 07:29 13.20529 77.70054 3002 ft 36 kts 270°
2026-04-26 07:29 13.20531 77.69755 3002 ft 44 kts 271°
2026-04-26 07:29 13.20534 77.69448 3002 ft 42 kts 273°
2026-04-26 07:29 13.20539 77.69051 3002 ft 39 kts 270°
2026-04-26 07:30 13.20539 77.68778 3002 ft 32 kts 270°
2026-04-26 07:30 13.20541 77.68681 3002 ft 9 kts 271°
2026-04-26 07:30 13.20578 77.68617 3002 ft 7 kts 349°
2026-04-26 07:30 13.20592 77.68616 3002 ft 0 kts
2026-04-26 07:31 13.20595 77.68616 3002 ft 3 kts
2026-04-26 07:32 13.20667 77.68619 3002 ft 12 kts 13°
2026-04-26 07:32 13.20713 77.68668 3002 ft 8 kts 80°
2026-04-26 07:32 13.20713 77.68739 3002 ft 15 kts 91°
2026-04-26 07:32 13.20712 77.68908 3002 ft 56 kts 91°
2026-04-26 07:33 13.20703 77.69798 3002 ft 127 kts 91°
2026-04-26 07:33 13.20685 77.70850 3009 ft 166 kts 91°
2026-04-26 07:33 13.20687 77.71699 3057 ft 181 kts 91°
2026-04-26 07:33 13.20723 77.73310 3811 ft 171 kts 78°
2026-04-26 07:34 13.21076 77.74070 3963 ft 182 kts 47°
2026-04-26 07:34 13.22081 77.74950 4269 ft 197 kts 45°
2026-04-26 07:34 13.23191 77.76533 4769 ft 217 kts 62°
2026-04-26 07:34 13.23915 77.77947 5348 ft 231 kts 63°
2026-04-26 07:35 13.24691 77.79436 5856 ft 246 kts 62°
2026-04-26 07:35 13.25259 77.80496 5965 ft 263 kts 62°
2026-04-26 07:35 13.26185 77.82217 6068 ft 286 kts 63°
2026-04-26 07:35 13.27177 77.84662 7538 ft 276 kts 63°
2026-04-26 07:36 13.28234 77.86276 8585 ft 274 kts 56°
2026-04-26 07:36 13.29021 77.88010 9526 ft 275 kts 77°
2026-04-26 07:36 13.29006 77.89967 10286 ft 280 kts 99°
2026-04-26 07:36 13.28688 77.91286 10620 ft 290 kts 103°
2026-04-26 07:37 13.27871 77.93996 11362 ft 307 kts 104°
2026-04-26 07:37 13.27231 77.96151 11878 ft 323 kts 104°
2026-04-26 07:37 13.26605 77.98377 12682 ft 327 kts 103°
2026-04-26 07:37 13.25996 78.00624 13504 ft 331 kts 103°
2026-04-26 07:38 13.25593 78.02136 13787 ft 335 kts 103°
2026-04-26 07:38 13.24976 78.04464 14017 ft 338 kts 103°
2026-04-26 07:38 13.24354 78.06820 14034 ft 351 kts 103°
2026-04-26 07:38 13.23700 78.09291 14033 ft 362 kts 103°
2026-04-26 07:39 13.23036 78.11794 14096 ft 369 kts 103°
2026-04-26 07:39 13.22369 78.14297 14973 ft 365 kts 104°
2026-04-26 07:39 13.21484 78.17619 16323 ft 357 kts 105°
2026-04-26 07:39 13.20838 78.20042 16848 ft 358 kts 105°
2026-04-26 07:40 13.20173 78.22537 17012 ft 366 kts 105°
2026-04-26 07:40 13.19495 78.25082 17019 ft 372 kts 105°
2026-04-26 07:40 13.19042 78.26781 17012 ft 375 kts 105°
2026-04-26 07:40 13.18105 78.30291 17006 ft 386 kts 105°
2026-04-26 07:41 13.17395 78.32950 17011 ft 391 kts 105°
2026-04-26 07:41 13.16665 78.35685 17005 ft 396 kts 105°
2026-04-26 07:41 13.16188 78.37470 17001 ft 397 kts 105°
2026-04-26 07:41 13.15202 78.41161 17007 ft 402 kts 105°
2026-04-26 07:42 13.14457 78.43944 16995 ft 405 kts 105°
2026-04-26 07:42 13.13963 78.45790 16998 ft 406 kts 105°
2026-04-26 07:42 13.12956 78.49553 17000 ft 411 kts 105°
2026-04-26 07:42 13.12202 78.52369 16992 ft 410 kts 105°
2026-04-26 07:43 13.11443 78.55201 16991 ft 412 kts 105°
2026-04-26 07:43 13.10691 78.58008 16987 ft 413 kts 105°
2026-04-26 07:43 13.10180 78.59913 16982 ft 417 kts 105°
2026-04-26 07:43 13.09145 78.63774 16969 ft 422 kts 105°
2026-04-26 07:44 13.08366 78.66675 16960 ft 426 kts 105°
2026-04-26 07:44 13.07574 78.69626 16952 ft 427 kts 105°
2026-04-26 07:44 13.07054 78.71559 16922 ft 412 kts 105°
2026-04-26 07:44 13.06104 78.75093 16964 ft 370 kts 105°
2026-04-26 07:45 13.05654 78.76767 16948 ft 363 kts 105°
2026-04-26 07:45 13.04769 78.80061 16925 ft 357 kts 105°
2026-04-26 07:45 13.04107 78.82526 16912 ft 359 kts 105°
2026-04-26 07:45 13.03663 78.84177 16912 ft 358 kts 105°
2026-04-26 07:46 13.02784 78.87444 16905 ft 360 kts 105°
2026-04-26 07:46 13.02119 78.89915 16896 ft 360 kts 105°
2026-04-26 07:46 13.01673 78.91571 16892 ft 360 kts 105°
2026-04-26 07:46 13.00792 78.94842 16892 ft 360 kts 105°
2026-04-26 07:47 13.00122 78.97325 16880 ft 361 kts 105°
2026-04-26 07:47 12.99675 78.98982 16876 ft 359 kts 105°
2026-04-26 07:47 12.99001 79.01478 16872 ft 360 kts 105°
2026-04-26 07:47 12.98115 79.04758 16877 ft 359 kts 105°
2026-04-26 07:48 12.97671 79.06401 16878 ft 360 kts 105°
2026-04-26 07:48 12.96779 79.09699 16876 ft 358 kts 105°
2026-04-26 07:48 12.96332 79.11307 16872 ft 359 kts 105°
2026-04-26 07:48 12.95371 79.14597 16862 ft 358 kts 106°
2026-04-26 07:49 12.94886 79.16222 16867 ft 358 kts 106°
2026-04-26 07:49 12.93913 79.19469 16863 ft 358 kts 106°
2026-04-26 07:49 12.93190 79.21890 16857 ft 357 kts 106°
2026-04-26 07:50 12.91734 79.26798 16852 ft 360 kts 106°
2026-04-26 07:50 12.91258 79.28406 16848 ft 358 kts 106°
2026-04-26 07:50 12.90296 79.31665 16848 ft 359 kts 106°
2026-04-26 07:50 12.89813 79.33298 16846 ft 359 kts 106°
2026-04-26 07:51 12.89094 79.35734 16840 ft 358 kts 106°
2026-04-26 07:51 12.88366 79.38198 16829 ft 358 kts 106°
2026-04-26 07:51 12.87641 79.40649 16833 ft 359 kts 106°
2026-04-26 07:51 12.86681 79.43891 16826 ft 358 kts 106°
2026-04-26 07:52 12.86198 79.45521 16824 ft 358 kts 106°
2026-04-26 07:52 12.85556 79.47974 16821 ft 358 kts 100°
2026-04-26 07:52 12.85463 79.51341 16815 ft 357 kts 79°
2026-04-26 07:52 12.86151 79.53805 16823 ft 357 kts 70°
2026-04-26 07:53 12.87022 79.56159 16810 ft 356 kts 69°
2026-04-26 07:53 12.87944 79.58526 16817 ft 356 kts 68°
2026-04-26 07:53 12.88865 79.60885 16811 ft 357 kts 68°
2026-04-26 07:53 12.89473 79.62462 16812 ft 356 kts 69°
2026-04-26 07:54 12.90378 79.64840 16819 ft 369 kts 69°
2026-04-26 07:54 12.91666 79.68267 16812 ft 398 kts 69°
2026-04-26 07:54 12.92664 79.70939 16811 ft 405 kts 69°
2026-04-26 07:54 12.93334 79.72739 16755 ft 401 kts 69°
2026-04-26 07:55 12.94316 79.75377 16455 ft 391 kts 69°
2026-04-26 07:55 12.95275 79.77959 16018 ft 396 kts 69°
2026-04-26 07:55 12.96589 79.81496 15209 ft 394 kts 69°
2026-04-26 07:55 12.97551 79.84089 14547 ft 390 kts 69°
2026-04-26 07:56 12.98511 79.86674 13870 ft 387 kts 69°
2026-04-26 07:56 12.99452 79.89210 13197 ft 383 kts 69°
2026-04-26 07:56 13.00391 79.91741 12534 ft 380 kts 69°
2026-04-26 07:56 13.01332 79.94277 11811 ft 377 kts 69°
2026-04-26 07:57 13.01943 79.95924 11364 ft 375 kts 69°
2026-04-26 07:57 13.02864 79.98409 10915 ft 365 kts 69°
2026-04-26 07:57 13.04027 80.01550 10598 ft 336 kts 69°
2026-04-26 07:57 13.04814 80.03677 10491 ft 307 kts 69°
2026-04-26 07:58 13.05550 80.05666 10369 ft 290 kts 69°
2026-04-26 07:58 13.06263 80.07593 10206 ft 290 kts 69°
2026-04-26 07:58 13.06963 80.09484 10054 ft 279 kts 69°
2026-04-26 07:58 13.07640 80.11318 9833 ft 271 kts 68°
2026-04-26 07:59 13.08088 80.12528 9602 ft 269 kts 68°
2026-04-26 07:59 13.08747 80.14310 9219 ft 268 kts 68°
2026-04-26 07:59 13.09407 80.16089 8853 ft 266 kts 68°
2026-04-26 07:59 13.10065 80.17866 8504 ft 264 kts 69°
2026-04-26 08:00 13.10709 80.19611 8155 ft 263 kts 68°
2026-04-26 08:00 13.11363 80.21381 7800 ft 262 kts 69°
2026-04-26 08:00 13.12221 80.23704 7337 ft 261 kts 68°
2026-04-26 08:00 13.12642 80.24843 7103 ft 260 kts 68°
2026-04-26 08:01 13.13282 80.26568 6827 ft 258 kts 68°
2026-04-26 08:01 13.14160 80.28853 6327 ft 259 kts 68°
2026-04-26 08:01 13.14835 80.30576 5921 ft 262 kts 68°
2026-04-26 08:01 13.15282 80.31728 5803 ft 256 kts 69°
2026-04-26 08:02 13.15747 80.33434 5657 ft 248 kts 83°
2026-04-26 08:02 13.15286 80.35636 5416 ft 238 kts 124°
2026-04-26 08:02 13.14529 80.36469 5217 ft 234 kts 142°
2026-04-26 08:02 13.12616 80.37401 4924 ft 223 kts 165°
2026-04-26 08:03 13.11601 80.37576 4830 ft 216 kts 173°
2026-04-26 08:03 13.09649 80.37710 4545 ft 208 kts 175°
2026-04-26 08:03 13.08677 80.37737 4352 ft 206 kts 181°
2026-04-26 08:03 13.07290 80.37425 4071 ft 204 kts 207°
2026-04-26 08:04 13.06031 80.36005 3568 ft 209 kts 249°
2026-04-26 08:04 13.05768 80.35043 3334 ft 209 kts 255°
2026-04-26 08:04 13.05373 80.33632 3005 ft 207 kts 248°
2026-04-26 08:04 13.04667 80.31825 2695 ft 203 kts 245°
2026-04-26 08:05 13.04146 80.30484 2402 ft 203 kts 246°
2026-04-26 08:05 13.03650 80.29134 2141 ft 201 kts 246°
2026-04-26 08:05 13.03164 80.27841 1912 ft 186 kts 245°
2026-04-26 08:05 13.02864 80.27051 1766 ft 173 kts 245°
2026-04-26 08:06 13.02304 80.25578 1423 ft 157 kts 245°
2026-04-26 08:06 13.01911 80.24535 1269 ft 157 kts 244°
2026-04-26 08:06 13.01646 80.23836 1116 ft 156 kts 244°
2026-04-26 08:06 13.01128 80.22471 878 ft 154 kts 244°
2026-04-26 08:07 13.00744 80.21447 673 ft 153 kts 245°
2026-04-26 08:07 13.00358 80.20438 486 ft 151 kts 245°
2026-04-26 08:07 12.99979 80.19435 300 ft 149 kts 245°
2026-04-26 08:07 12.99603 80.18452 117 ft 148 kts 246°
2026-04-26 08:08 12.99266 80.17562 62 ft 101 kts 249°
2026-04-26 08:08 12.99136 80.17215 62 ft 57 kts 249°
2026-04-26 08:08 12.98979 80.16798 62 ft 52 kts 249°
2026-04-26 08:08 12.98865 80.16492 62 ft 29 kts 245°
2026-04-26 08:09 12.98741 80.16352 62 ft 25 kts 218°
2026-04-26 08:09 12.98662 80.16287 62 ft 16 kts 219°
2026-04-26 08:09 12.98649 80.16277 62 ft 0 kts 219°
2026-04-26 08:10 12.98635 80.16265 62 ft 4 kts 219°
2026-04-26 08:11 12.98596 80.16233 62 ft 9 kts 218°
2026-04-26 08:11 12.98536 80.16173 62 ft 13 kts 230°
2026-04-26 08:11 12.98475 80.16138 62 ft 9 kts 165°
2026-04-26 08:11 12.98415 80.16162 62 ft 9 kts 156°
2026-04-26 08:12 12.98389 80.16212 62 ft 8 kts 77°
2026-04-26 08:12 12.98407 80.16266 62 ft 7 kts 70°
2026-04-26 08:12 12.98426 80.16316 62 ft 7 kts 68°
2026-04-26 08:12 12.98438 80.16348 62 ft 6 kts 68°
2026-04-26 08:13 12.98454 80.16391 62 ft 7 kts 70°
2026-04-26 08:13 12.98474 80.16456 62 ft 3 kts 98°
2026-04-26 08:13 12.98466 80.16468 62 ft 3 kts 140°
2026-04-26 08:13 12.98449 80.16479 62 ft 2 kts 153°
2026-04-26 08:14 12.98436 80.16484 62 ft 1 kts 158°
2026-04-26 08:14 12.98431 80.16486 62 ft 0 kts 159°